Total_Precipitation_Accumulation
0.03 0.09 0.28 0.55 1.03 1.48 1.23 0.62 0.43 0.30 0.30 0.41 0.40 0.30 0.32 0.42 0.59 0.92 0.42 0.28 0.13 0.05 0.04 0.12 0.16 0.13 0.14 0.16 0.17 0.19 0.17 0.17 0.16 0.14 0.12 0.12 0.12 0.12 0.12 0.14 0.18 0.20 0.21 0.23 0.25 0.23 0.22 0.20 0.20
0.04 0.14 0.36 0.74 1.40 1.73 1.06 0.46 0.33 0.28 0.35 0.42 0.34 0.27 0.31 0.29 0.25 0.21 0.22 0.30 0.13 0.05 0.04 0.06 0.11 0.12 0.11 0.13 0.15 0.18 0.17 0.18 0.18 0.16 0.14 0.14 0.16 0.18 0.20 0.20 0.20 0.22 0.24 0.21 0.21 0.20 0.18 0.16 0.17
0.07 0.16 0.42 0.78 1.08 1.16 0.59 0.27 0.23 0.25 0.38 0.41 0.33 0.29 0.32 0.35 0.32 0.24 0.17 0.17 0.12 0.06 0.05 0.06 0.08 0.10 0.10 0.11 0.14 0.15 0.17 0.17 0.19 0.18 0.15 0.17 0.20 0.24 0.26 0.26 0.24 0.26 0.24 0.22 0.22 0.20 0.19 0.17 0.18
0.10 0.22 0.43 0.62 0.71 0.60 0.34 0.21 0.21 0.26 0.37 0.33 0.29 0.38 0.42 0.45 0.28 0.22 0.19 0.14 0.11 0.08 0.07 0.08 0.10 0.10 0.09 0.11 0.12 0.14 0.17 0.19 0.19 0.16 0.17 0.18 0.24 0.26 0.26 0.24 0.25 0.25 0.22 0.22 0.21 0.20 0.19 0.19 0.20
0.13 0.29 0.51 0.60 0.52 0.35 0.26 0.22 0.23 0.24 0.23 0.31 0.35 0.53 0.55 0.48 0.31 0.37 0.37 0.23 0.11 0.10 0.11 0.12 0.14 0.12 0.12 0.12 0.13 0.15 0.16 0.18 0.19 0.17 0.18 0.20 0.25 0.25 0.24 0.23 0.23 0.23 0.21 0.22 0.23 0.23 0.20 0.22 0.24
0.14 0.27 0.39 0.43 0.31 0.21 0.23 0.22 0.20 0.21 0.26 0.36 0.46 0.48 0.58 0.49 0.41 0.59 0.54 0.39 0.21 0.16 0.18 0.20 0.21 0.19 0.17 0.16 0.15 0.16 0.19 0.19 0.21 0.22 0.21 0.22 0.24 0.26 0.25 0.25 0.26 0.24 0.22 0.22 0.24 0.24 0.24 0.26 0.29
0.13 0.20 0.26 0.23 0.18 0.17 0.18 0.17 0.18 0.20 0.33 0.42 0.48 0.58 0.74 0.77 0.60 0.59 0.66 0.64 0.40 0.38 0.47 0.40 0.28 0.24 0.25 0.24 0.23 0.22 0.24 0.26 0.26 0.26 0.24 0.26 0.26 0.27 0.28 0.30 0.30 0.29 0.27 0.28 0.25 0.24 0.27 0.30 0.33
0.06 0.11 0.12 0.10 0.09 0.12 0.11 0.14 0.17 0.20 0.28 0.44 0.55 0.71 0.99 0.92 0.76 0.74 0.80 0.93 0.67 0.56 0.57 0.53 0.40 0.35 0.27 0.24 0.26 0.28 0.30 0.31 0.29 0.28 0.28 0.29 0.28 0.29 0.34 0.34 0.41 0.41 0.43 0.46 0.43 0.37 0.35 0.40 0.44
0.04 0.10 0.08 0.05 0.05 0.08 0.07 0.10 0.14 0.19 0.27 0.35 0.57 0.76 0.79 0.72 0.89 0.94 1.09 1.28 1.23 1.00 0.87 0.75 0.50 0.40 0.38 0.32 0.29 0.37 0.38 0.37 0.37 0.40 0.39 0.50 0.64 0.63 0.75 0.66 0.74 0.70 0.73 0.74 0.74 0.69 0.67 0.69 0.58
0.03 0.06 0.06 0.03 0.03 0.05 0.05 0.08 0.14 0.30 0.46 0.71 0.96 0.94 0.73 0.73 1.04 1.23 1.40 1.64 1.68 1.52 1.33 1.08 0.78 0.62 0.55 0.46 0.48 0.56 0.56 0.66 0.70 0.86 0.91 1.15 1.38 1.32 0.97 1.04 1.25 1.30 1.30 1.24 1.26 1.39 1.24 1.09 0.95
0.02 0.02 0.02 0.03 0.03 0.03 0.04 0.07 0.10 0.22 0.66 1.17 1.41 1.32 1.13 1.00 1.24 1.59 1.90 2.19 1.97 1.69 1.52 1.39 1.17 0.95 0.75 0.76 0.75 0.83 0.97 1.26 1.17 1.10 1.23 1.59 1.49 1.23 1.08 1.21 1.50 1.77 1.76 1.70 1.79 1.95 1.61 1.69 1.89
0.01 0.01 0.01 0.01 0.02 0.02 0.03 0.05 0.14 0.24 0.64 0.92 1.16 1.26 1.29 1.29 1.37 1.59 1.91 2.18 2.38 2.26 2.02 1.80 1.64 1.42 1.35 1.24 1.12 1.02 1.07 1.20 1.21 1.33 1.25 1.57 1.70 1.58 1.52 1.66 1.75 1.95 2.17 2.53 2.41 2.52 2.40 2.32 2.17
0.00 0.01 0.01 0.01 0.01 0.02 0.03 0.08 0.17 0.28 0.55 0.61 0.70 0.85 1.15 1.39 1.71 2.00 2.16 2.50 2.62 2.70 2.48 2.33 2.18 2.10 2.05 1.87 1.66 1.33 1.36 1.32 1.36 1.55 1.53 1.64 1.90 1.99 2.08 2.05 2.00 1.89 2.22 2.64 2.86 2.57 2.85 2.86 2.47
0.00 0.00 0.00 0.01 0.02 0.03 0.04 0.09 0.19 0.34 0.49 0.55 0.63 0.82 1.10 1.44 1.72 2.14 2.43 2.83 2.83 2.86 2.97 3.05 2.92 2.80 2.77 2.54 2.35 2.07 1.86 1.91 1.86 1.87 1.99 2.13 2.32 2.47 2.52 2.38 2.31 2.09 2.10 2.39 2.61 2.61 2.84 2.73 2.58
0.00 0.01 0.04 0.04 0.04 0.06 0.12 0.21 0.37 0.50 0.56 0.75 0.84 1.06 1.24 1.56 1.90 2.01 2.19 2.45 2.75 3.02 3.46 3.72 3.75 3.65 3.60 3.46 3.12 2.75 2.54 2.54 2.66 2.70 2.71 2.63 2.72 2.93 2.81 2.59 2.29 2.17 2.23 2.36 2.35 2.37 2.47 2.34 2.25
0.01 0.03 0.11 0.11 0.07 0.09 0.16 0.43 0.56 0.60 0.72 0.93 0.98 1.21 1.50 1.60 1.94 2.07 2.09 2.28 2.83 3.30 3.87 4.17 4.32 4.52 4.39 4.31 3.94 3.46 3.18 3.04 2.99 3.04 3.04 2.91 2.93 2.83 2.76 2.44 2.10 2.15 2.26 2.27 2.25 2.11 2.20 2.23 2.29
0.02 0.06 0.12 0.19 0.11 0.12 0.19 0.49 0.62 0.64 0.85 1.01 1.17 1.20 1.36 1.58 2.01 2.27 2.37 2.51 2.95 3.59 4.28 4.67 5.13 5.40 5.27 4.97 4.45 3.99 3.83 3.59 3.36 3.31 3.19 3.02 2.80 2.64 2.69 2.37 2.25 2.16 2.19 2.08 1.93 2.15 2.27 2.29 2.32
0.03 0.05 0.12 0.23 0.15 0.14 0.26 0.48 0.69 0.78 0.93 1.11 1.17 1.16 1.30 1.59 1.80 2.12 2.39 2.78 3.14 3.69 4.46 5.06 5.58 5.75 5.45 4.91 4.48 4.30 4.12 3.77 3.48 3.14 2.86 2.59 2.45 2.27 2.38 2.17 2.10 2.17 2.22 2.06 2.06 2.25 2.26 2.05 2.15
0.03 0.05 0.14 0.22 0.14 0.16 0.29 0.46 0.68 0.85 0.99 1.06 1.25 1.25 1.44 1.69 1.84 2.21 2.54 2.97 3.40 3.92 4.63 5.21 5.57 5.50 5.27 4.90 4.51 4.21 3.73 3.40 3.10 2.76 2.52 2.28 2.02 1.92 2.14 1.97 2.11 2.08 2.00 1.83 1.80 1.89 1.89 1.67 1.93
0.05 0.08 0.18 0.21 0.14 0.15 0.30 0.50 0.78 0.87 0.85 0.89 1.12 1.23 1.30 1.49 1.78 2.10 2.60 2.89 3.21 3.69 4.18 4.58 4.53 4.20 4.06 4.00 3.88 3.61 3.62 3.46 3.27 3.04 2.78 2.36 2.14 1.97 1.81 1.90 1.81 1.79 1.85 1.65 1.55 1.70 1.71 1.49 1.74
0.06 0.08 0.14 0.20 0.22 0.23 0.33 0.66 0.91 0.93 0.84 0.80 0.84 0.95 1.05 1.18 1.40 1.72 2.26 2.56 2.71 3.09 3.38 3.44 3.32 3.11 3.12 3.15 3.07 3.11 3.33 3.38 3.32 3.15 2.88 2.58 2.38 2.21 2.05 1.89 1.73 1.69 1.57 1.55 1.51 1.57 1.60 1.53 1.48
0.09 0.06 0.07 0.10 0.19 0.42 0.47 0.85 1.11 1.21 1.14 0.93 0.83 0.93 0.98 1.05 1.10 1.38 1.72 1.90 2.14 2.30 2.45 2.50 2.55 2.54 2.52 2.54 2.46 2.36 2.41 2.56 2.77 3.00 3.05 3.01 2.79 2.49 2.20 1.99 1.78 1.56 1.41 1.53 1.29 1.36 1.55 1.63 1.40
0.06 0.05 0.06 0.09 0.15 0.30 0.42 0.66 1.08 1.34 1.48 1.14 0.91 0.83 0.77 0.89 1.09 1.23 1.30 1.44 1.58 1.58 1.73 1.81 2.09 2.37 2.43 2.41 2.47 2.36 2.12 2.09 2.14 2.28 2.42 2.43 2.42 2.28 2.00 1.86 1.76 1.51 1.31 1.30 1.31 1.48 1.46 1.44 1.34
0.06 0.10 0.16 0.24 0.37 0.60 0.57 0.62 0.97 1.19 1.32 1.06 0.85 0.82 0.67 0.66 0.83 0.99 1.14 1.20 1.24 1.21 1.37 1.58 1.89 2.24 2.43 2.48 2.43 2.34 2.25 2.21 2.08 2.04 2.03 1.91 1.94 1.93 1.80 1.67 1.62 1.46 1.32 1.31 1.27 1.36 1.41 1.45 1.48
0.08 0.15 0.48 0.82 1.15 1.18 0.68 0.67 0.90 0.91 0.87 0.88 0.74 0.68 0.70 0.61 0.61 0.61 0.75 0.86 0.85 0.88 0.98 1.23 1.46 1.69 1.89 2.03 2.03 1.93 2.04 2.16 2.03 1.88 1.76 1.65 1.55 1.50 1.51 1.57 1.59 1.44 1.37 1.40 1.50 1.47 1.40 1.43 1.51
0.08 0.12 0.36 0.60 0.77 0.89 0.72 1.06 1.15 0.84 0.73 0.62 0.51 0.48 0.53 0.44 0.40 0.37 0.43 0.53 0.63 0.66 0.69 0.82 1.10 1.29 1.48 1.61 1.73 1.82 1.98 2.11 2.07 2.19 1.95 1.75 1.52 1.40 1.45 1.60 1.63 1.52 1.42 1.36 1.54 1.51 1.52 1.58 1.56
0.09 0.08 0.13 0.21 0.35 0.60 0.86 1.08 1.02 0.82 0.81 0.61 0.43 0.37 0.37 0.32 0.28 0.28 0.33 0.37 0.41 0.46 0.53 0.60 0.76 0.98 1.20 1.39 1.56 1.63 1.61 1.64 1.77 1.94 1.91 1.75 1.67 1.51 1.58 1.62 1.72 1.74 1.74 1.69 1.72 1.62 1.66 1.83 1.82
0.10 0.09 0.10 0.16 0.29 0.46 0.77 1.12 1.18 1.01 0.90 0.72 0.55 0.37 0.30 0.30 0.28 0.27 0.28 0.30 0.31 0.33 0.45 0.57 0.64 0.80 1.12 1.44 1.60 1.50 1.47 1.37 1.50 1.57 1.61 1.67 1.64 1.63 1.65 1.63 1.66 1.71 1.75 1.74 1.80 1.78 1.83 1.98 1.98
0.14 0.11 0.11 0.14 0.17 0.30 0.65 0.86 0.73 0.76 0.72 0.63 0.56 0.40 0.35 0.32 0.31 0.30 0.27 0.28 0.32 0.29 0.38 0.57 0.70 0.86 1.15 1.46 1.64 1.61 1.45 1.41 1.49 1.42 1.40 1.52 1.57 1.57 1.60 1.59 1.55 1.51 1.56 1.73 1.87 1.85 1.93 2.00 2.03
0.14 0.14 0.14 0.20 0.19 0.22 0.36 0.57 0.44 0.51 0.61 0.59 0.43 0.32 0.27 0.22 0.25 0.24 0.20 0.24 0.24 0.24 0.36 0.68 0.99 1.34 1.51 1.75 1.97 1.96 1.66 1.49 1.40 1.23 1.20 1.34 1.50 1.54 1.55 1.54 1.50 1.45 1.54 1.76 1.88 1.94 2.13 2.20 2.12